SL-16 DEB, 22603

Orbit data source: Space-Track

SL-16 DEB, 22603 is space debris in LEO originally from a launch on Fri, 26 Mar 1993 UTC launched from the Tyuratam Missile And Space Complex (TTMTR). Debris objects in space refer to the collection of defunct objects orbiting the Earth. Examples of debris include non-operational satellites, rocket bodies, and fragments generated from explosions, collisions, or faulty payload assembly.

Loading next visibility...
Identifier
22603, 1993-016M
Orbit
LEO
Country
Flag of CISCIS
Related business
Manufacturer
Unknown
Mission
Spacecraft
Bus & Motor
Unknown
Mass
Unknown
Launch date (UTC)
1993-03-26 (33 years ago)
Launch vehicle
Unknown
Launch site
Tyuratam Missile And Space Complex (TTMTR)
Object type
Payload
Rocket body
Debris
Shape & HBR
Unknown shape, 0.3 m
Radar Cross Section
Medium (>0.1 m² and <1 m²)

Expand to show TLE details & history
Last TLE update: 12 hours ago

TLE from 12 hours ago
0 SL-16 DEB
1 22603U 93016M   26036.18086758  .00000013  00000-0  50806-4 0  9999
2 22603  70.9969 300.9343 0160231 197.3579 315.9231 13.78742902653383
Epoch: 2026-02-05T04:20Z
TLE epoch observation values (Epoch: 2026-02-05T04:20:26.958Z)
Latitude
26.41125°
Longitude
-89.31071°
Altitude
887.367 km
Speed
7.453 km/s
True Right ascension
07h 24m 33s
True Declination
26° 16' 37"
Sunlit
Object was in full shadow at epoch
Visualization orbit readout
Latitude
Unknown
Longitude
Unknown
Altitude
Unknown
Speed
Unknown
Apparent Right ascension
Unknown
Apparent Declination
Unknown
Sunlit
N/A
Visualization observer readout
Local Sidereal Time
18:14:13
Azimuth
Unknown
Elevation
Unknown
Doppler factor
Unknown
Orbital elements
Apogee altitude
1,083.99 km
Perigee altitude
848.628 km
Semi-major axis
7,344.446 km
Eccentricity
0.01602
Inclination
70.9969°
RAAN
300.9343°
Arg. of periapsis
197.3579°
True anomaly
314.62733°
Mean anomaly
315.9231°
Eccentric anomaly
315.27708°
Mean motion
3.4483 °/min
Orbital period
104.4 mins
BSTAR
0.000050806
Loading maneuver chart data...
Computing Atmospheric mass density...
Loading historical data...
Loading historical data...
Loading historical data...
Loading historical data...
Loading historical data...
Loading historical data...
Loading historical data...

Documentation

Showing up to 5 results
|